This is the latest recevied weather packets stored in our database for station/object WB5LFS-1. If no packets are shown the sender has not sent any weather packets the latest 10 day(s).
| Time | Temp. | Humidity | Pressure | Rain* | Wind** | Luminosity | Snow |
|---|---|---|---|---|---|---|---|
| 1777351321 | 8.33° C | 84% | 1024.7 hPa | 0 mm | - | - | - |
| 1777350421 | 8.89° C | 83% | 1024.5 hPa | 0 mm | - | - | - |
| 1777349521 | 8.89° C | 83% | 1024.1 hPa | 0 mm | - | - | - |
| 1777348621 | 9.44° C | 81% | 1024.2 hPa | 0 mm | - | - | - |
| 1777347721 | 9.44° C | 81% | 1024.3 hPa | 0 mm | - | - | - |
| 1777346821 | 9.44° C | 81% | 1024.4 hPa | 0 mm | - | - | - |
| 1777345921 | 9.44° C | 79% | 1024.5 hPa | 0 mm | - | - | - |
| 1777345021 | 10° C | 80% | 1024.5 hPa | 0 mm | - | - | - |
| 1777344121 | 10° C | 79% | 1024.8 hPa | 0 mm | - | - | - |
| 1777343221 | 10.56° C | 78% | 1024.8 hPa | 0 mm | - | - | - |
| 1777342321 | 11.11° C | 76% | 1025 hPa | 0 mm | - | - | - |
| 1777341421 | 11.11° C | 74% | 1024.8 hPa | 0 mm | - | - | - |
| 1777340521 | 11.67° C | 72% | 1024.9 hPa | 0 mm | - | - | - |
| 1777339621 | 12.22° C | 71% | 1024.4 hPa | 0 mm | - | - | - |
| 1777338721 | 12.22° C | 71% | 1024.2 hPa | 0 mm | - | - | - |
| 1777337821 | 12.78° C | 69% | 1024.1 hPa | 0 mm | - | - | - |
| 1777336921 | 12.78° C | 67% | 1024.3 hPa | 0 mm | - | - | - |
| 1777336021 | 13.33° C | 67% | 1024 hPa | 0 mm | - | - | - |
| 1777335121 | 13.89° C | 65% | 1023.8 hPa | 0 mm | - | - | - |
| 1777334221 | 14.44° C | 64% | 1023.7 hPa | 0 mm | - | - | - |
| 1777333321 | 15.56° C | 61% | 1023.7 hPa | 0 mm | - | - | - |
| 1777332421 | 16.11° C | 59% | 1023.5 hPa | 0 mm | - | - | - |
| 1777331521 | 16.67° C | 56% | 1023.2 hPa | 0 mm | - | - | - |
| 1777330621 | 17.22° C | 54% | 1023.2 hPa | 0 mm | - | - | - |
| 1777329721 | 17.78° C | 52% | 1023 hPa | 0 mm | - | - | - |
* Rain latest hour (hover to see other rain measurements)
** Current wind speed in m/s (hover to see current wind gust speed)